Weather in Bestobe

Kazakhstan     52°29′59″N   73°05′57″E
temp.,
°C
wind,
m/s
gust,
m/s
humid.,
%
clouds,
%
prec.,
mm/h
press.,
hPa
HPBL,
m
8 may, sat
sat823:00+13nne3335100 0.0 102114
02:00+11ne334014 0.0 102115
05:00+10e33445 0.0 102215
08:00+16ese343444 0.0 1021395
11:00+20se56245 0.0 10201372
14:00+23se672088 0.0 10181930
17:00+22sse4626100 0.0 10162194
20:00+16sse2264100 0.0 101631
9 may, sun
sun923:00+16ene3458100 0.0 101471
02:00+15e596579 1.4 1013252
05:00+13e486749 1.8 1012159
08:00+17ese7955100 0.4 1011479
11:00+21ese7846100 0.4 1010970
14:00+21e7943100 0.4 1009848
17:00+15ne3495100 8.8 1010165
20:00+14ne3588100 9.4 1011139
10 may, mon
mon1023:00+15e91758100 9.8 1010630
02:00+13ene101765100 0.1 1010736
05:00+9ene101788100 2.2 1012628
08:00+7ene101689100 4.4 1014597
11:00+7ene91587100 7.3 1016590
14:00+13ene9114866 0.3 10161100
17:00+15e51043100 0.3 10171734
20:00+11ne5125483 0.0 1018220
11 may, tue
tue1123:00+10ne715564 0.0 1020333
02:00+7nne49640 0.0 1020158
05:00+6nne49680 0.0 1022173
08:00+12nne69540 0.0 1023703
11:00+15nne67415 0.0 10231815
14:00+17nne67365 0.0 10232164
17:00+18n57345 0.0 10232085
20:00+13n3348100 0.0 102319
12 may, wed
wed1223:00+12n2248100 0.0 102411
02:00+11wnw1250100 0.0 102310
05:00+11w4452100 0.0 102353
08:00+15wnw4647100 0.0 1023380
11:00+19nw5636100 0.0 10211936
14:00+18nw8740100 0.0 10202267
17:00+16nnw775599 0.3 10201095
20:00+11nnw49785 0.6 1021302